Regional Weather Roundup
Issued by NWS

Home | Current Version | Previous Version | Text Only | Print | Product List | Glossary Off
Versions: 1 2 3 4 5 6 7 8 9 10 11 12 13 14 15 16 17 18 19 20 21 22 23 24 25 26 27 28 29 30 31 32 33 34 35 36 37 38 39 40 41 42 43 44 45 46 47 48 49 50

589
ASUS43 KFSD 291002
RWRSD

WEATHER ROUNDUP FOR SOUTH DAKOTA
NATIONAL WEATHER SERVICE SIOUX FALLS SD
500 AM CDT THU JUN 29 2017

NOTE: "FAIR" INDICATES FEW OR NO CLOUDS BELOW 12,000 FEET WITH NO
SIGNIFICANT WEATHER AND/OR OBSTRUCTIONS TO VISIBILITY.


SDZ001>005-009-010-012>017-291100-
NORTHWEST AND NORTH CENTRAL SOUTH DAKOTA

CITY           SKY/WX    TMP DP  RH WIND       PRES   REMARKS
BUFFALO          N/A     58  52  80 W9        29.75S
FAITH            N/A     59  56  89 W14       29.81R
MOBRIDGE       CLOUDY    62  47  57 E7        29.74S
$$

SDZ012>016-024>037-041>051-057-063-072>074-291100-
SOUTHWEST AND SOUTH CENTRAL SOUTH DAKOTA

CITY           SKY/WX    TMP DP  RH WIND       PRES   REMARKS
RAPID CTY ARPT CLOUDY    60  51  72 N15       29.82F
PIERRE         MOCLDY    56  45  66 CALM      29.74R
CUSTER         CLEAR     48  39  71 NW6       29.90F
ELLSWORTH AFB  CLOUDY    61  52  73 N14       29.81F
PHILIP         CLOUDY    60  51  72 CALM      29.76R
PINE RIDGE     CLEAR     54  51  90 NW5       29.78S
SPEARFISH      LGT RAIN  54  54 100 W7        29.88F
WINNER         FAIR      65  51  60 CALM      29.74S
$$

SDZ004>011-016>023-039-040-291100-
NORTHEAST SOUTH DAKOTA

CITY           SKY/WX    TMP DP  RH WIND       PRES   REMARKS
ABERDEEN       PTCLDY    51  48  89 CALM      29.74F
WATERTOWN      FOG       50  50 100 N6        29.72F VSB 1/4
BROOKINGS      PTCLDY    54  53  97 CALM      29.74S
SISSETON         N/A     54  54 100 N5        29.71F
$$

SDZ017-020-022-023-036>040-048>070-291100-
SOUTHEAST SOUTH DAKOTA

CITY           SKY/WX    TMP DP  RH WIND       PRES   REMARKS
SIOUX FALLS    MOCLDY    57  56  96 CALM      29.74R
HURON          CLOUDY    54  49  83 N3        29.73S
CHAMBERLAIN    CLOUDY    65  44  45 E6        29.72F
MITCHELL       CLOUDY    57  51  80 NE5       29.73S
YANKTON        MOCLDY    64  55  72 E6        29.75R
$$

ABBREVIATIONS USED IN REMARKS
   TC - TEMPERATURE IN CELSIUS
  WCI - WIND CHILL INDEX
   HX - HEAT INDEX
  VSB - VISIBILITY





USA.gov is the U.S. government's official web portal to all federal, state and local government web resources and services.